Date String (YYYY-MM-DD hh:mm:ss) UTC,Instrument flags,Ambient pressure (hPa),Sample flow (lpm),Bypass flow (lpm),Sample temperature (°C),Ambient temperature (°C),ASC tube jacket temperature (°C),LED temperature (°C),Box temperature (°C),Sample RH (%),Span deviation,Mass concentration (μg/m³),Mass concentration (μg/m³),Mass concentration (μg/m³)
DateTimeUTC,F1_M11,P_M11,Q1_M11,Q2_M11,T1_M11,T2_M11,T3_M11,T4_M11,T5_M11,U1_M11,ZSPAN_M11,X0_M11,X2_M11,X1_M11
2022-01-14 00:00:00,,0825.3,4.99,0.00,30.4,29.5,00.0,39.4,32.1,08.2,0001.0,0018.51,0010.05,0009.25
2022-01-14 00:01:00,,0825.4,5.01,0.00,30.4,29.5,00.0,39.4,32.1,08.3,0003.0,0018.61,0010.09,0009.27
2022-01-14 00:02:00,,0825.4,4.99,0.00,30.4,29.5,00.0,39.4,32.1,08.3,0000.6,0018.45,0010.08,0009.28
2022-01-14 00:03:00,,0825.4,5.01,0.00,30.4,29.5,00.0,39.4,32.1,08.3,0004.1,0018.38,0010.11,0009.31
2022-01-14 00:04:00,,0825.4,4.99,0.00,30.4,29.5,00.0,39.4,32.1,08.3,0001.9,0017.56,0010.18,0009.33
2022-01-14 00:05:00,,0825.3,5.01,0.00,30.4,29.5,00.0,39.4,32.0,08.2,0000.7,0016.66,0010.18,0009.37
2022-01-14 00:06:00,,0825.3,5.00,0.00,30.4,29.5,00.0,39.4,32.1,08.2,0000.6,0015.29,0010.17,0009.41
2022-01-14 00:07:00,,0825.3,5.01,0.00,30.4,29.5,00.0,39.4,32.1,08.1,0002.5,0014.99,0010.18,0009.42
2022-01-14 00:08:00,,0825.2,4.99,0.00,30.4,29.5,00.0,39.4,32.0,08.1,0003.5,0015.12,0010.15,0009.39
2022-01-14 00:09:00,,0825.2,5.01,0.00,30.4,29.5,00.0,39.4,32.0,08.2,0004.0,0016.22,0010.14,0009.38
2022-01-14 00:10:00,,0825.2,4.98,0.00,30.4,29.4,00.0,39.4,32.1,08.1,0003.8,0016.74,0010.16,0009.37
2022-01-14 00:11:00,,0825.2,5.01,0.00,30.3,29.4,00.0,39.4,32.1,08.1,0003.9,0016.81,0010.18,0009.37
2022-01-14 00:12:00,,0825.2,4.99,0.00,30.4,29.5,00.0,39.4,32.1,08.1,0001.8,0017.08,0010.17,0009.36
2022-01-14 00:13:00,,0825.2,5.01,0.00,30.4,29.5,00.0,39.4,32.1,08.2,0001.6,0018.29,0010.16,0009.34
2022-01-14 00:14:00,,0825.2,4.99,0.00,30.4,29.4,00.0,39.4,32.0,08.2,-000.6,0018.66,0010.15,0009.32
2022-01-14 00:15:00,,0825.2,5.01,0.00,30.4,29.4,00.0,39.4,32.0,08.5,-000.8,0018.81,0010.07,0009.27
2022-01-14 00:16:00,,0825.2,4.98,0.00,30.3,29.4,00.0,39.4,32.0,08.6,-000.3,0019.02,0010.06,0009.24
2022-01-14 00:17:00,,0825.3,5.00,0.00,30.4,29.4,00.0,39.4,32.0,08.6,0000.7,0019.54,0010.04,0009.22
2022-01-14 00:18:00,,0825.3,5.00,0.00,30.3,29.4,00.0,39.4,32.0,08.6,0000.1,0019.79,0010.01,0009.20
2022-01-14 00:19:00,,0825.3,5.01,0.00,30.3,29.4,00.0,39.4,32.0,08.5,0000.0,0020.01,0010.01,0009.20
2022-01-14 00:20:00,,0825.4,4.99,0.00,30.3,29.4,00.0,39.3,32.0,08.5,0000.0,0019.57,0010.01,0009.20
2022-01-14 00:21:00,,0825.4,5.01,0.00,30.3,29.4,00.0,39.3,32.0,08.4,0000.0,0018.88,0010.01,0009.21
2022-01-14 00:22:00,,0825.4,5.00,0.00,30.3,29.4,00.0,39.3,32.0,08.5,-000.0,0019.04,0009.97,0009.20
2022-01-14 00:23:00,,0825.4,4.99,0.00,30.3,29.4,00.0,39.3,32.0,08.3,0000.0,0018.72,0009.99,0009.22
2022-01-14 00:24:00,,0825.4,5.01,0.00,30.3,29.4,00.0,39.3,32.0,08.3,0000.2,0017.68,0010.03,0009.25
2022-01-14 00:25:00,,0825.3,4.99,0.00,30.3,29.4,00.0,39.3,31.9,08.3,0002.2,0018.31,0010.06,0009.27
2022-01-14 00:26:00,,0825.3,5.00,0.00,30.2,29.4,00.0,39.3,31.9,08.0,0003.3,0018.66,0010.16,0009.36
2022-01-14 00:27:00,,0825.3,5.01,0.00,30.2,29.4,00.0,39.3,31.9,07.9,0002.7,0019.05,0010.26,0009.46
2022-01-14 00:28:00,,0825.3,5.00,0.00,30.2,29.4,00.0,39.3,31.9,08.0,0000.9,0018.92,0010.32,0009.52
2022-01-14 00:29:00,,0825.3,5.00,0.00,30.2,29.3,00.0,39.3,31.8,08.3,0000.0,0019.18,0010.34,0009.54
2022-01-14 00:30:00,,0825.3,5.00,0.00,30.2,29.3,00.0,39.3,31.9,08.3,0003.2,0019.50,0010.37,0009.56
2022-01-14 00:31:00,,0825.3,4.99,0.00,30.2,29.3,00.0,39.3,31.9,08.4,0003.0,0019.17,0010.32,0009.53
2022-01-14 00:32:00,,0825.3,5.01,0.00,30.2,29.3,00.0,39.3,31.9,08.5,0002.1,0019.09,0010.23,0009.47
2022-01-14 00:33:00,,0825.3,4.99,0.00,30.2,29.3,00.0,39.2,31.9,08.4,0000.0,0018.66,0010.20,0009.42
2022-01-14 00:34:00,,0825.3,5.01,0.00,30.1,29.3,00.0,39.2,31.8,08.4,0000.0,0019.31,0010.17,0009.39
2022-01-14 00:35:00,,0825.3,4.99,0.00,30.1,29.3,00.0,39.2,31.9,08.4,0000.0,0019.15,0010.13,0009.34
2022-01-14 00:36:00,,0825.3,5.01,0.00,30.1,29.2,00.0,39.2,31.8,08.3,0000.0,0018.40,0010.12,0009.32
2022-01-14 00:37:00,,0825.3,5.01,0.00,30.1,29.2,00.0,39.2,31.8,08.4,0000.0,0017.66,0010.04,0009.23
2022-01-14 00:38:00,,0825.3,4.98,0.00,30.1,29.2,00.0,39.2,31.8,08.3,0000.0,0017.02,0009.92,0009.13
2022-01-14 00:39:00,,0825.3,5.01,0.00,30.1,29.2,00.0,39.2,31.8,08.3,0000.0,0017.26,0009.86,0009.06
2022-01-14 00:40:00,,0825.3,4.99,0.00,30.1,29.2,00.0,39.2,31.8,08.2,0000.0,0017.23,0009.82,0009.01
2022-01-14 00:41:00,,0825.3,5.01,0.00,30.1,29.2,00.0,39.2,31.8,08.3,0000.0,0016.52,0009.81,0008.96
2022-01-14 00:42:00,,0825.3,5.00,0.00,30.1,29.2,00.0,39.2,31.8,08.3,0000.0,0016.98,0009.86,0008.97
2022-01-14 00:43:00,,0825.2,4.99,0.00,30.0,29.2,00.0,39.1,31.7,08.4,0000.0,0018.05,0009.93,0009.01
2022-01-14 00:44:00,,0825.3,5.00,0.00,30.0,29.2,00.0,39.1,31.7,08.5,0000.0,0017.65,0010.00,0009.08
2022-01-14 00:45:00,,0825.3,4.99,0.00,30.0,29.2,00.0,39.1,31.7,08.6,0000.0,0017.11,0010.08,0009.15
2022-01-14 00:46:00,,0825.2,4.99,0.00,30.0,29.2,00.0,39.1,31.7,08.5,-000.2,0017.39,0010.28,0009.30
2022-01-14 00:47:00,,0825.3,5.01,0.00,30.0,29.2,00.0,39.1,31.7,08.5,-000.8,0017.41,0010.43,0009.46
2022-01-14 00:48:00,,0825.2,5.00,0.00,30.0,29.2,00.0,39.1,31.8,08.4,-001.1,0017.48,0010.56,0009.61
2022-01-14 00:49:00,,0825.2,5.01,0.00,30.0,29.2,00.0,39.1,31.7,08.4,-000.9,0018.11,0010.72,0009.74
2022-01-14 00:50:00,,0825.2,4.98,0.00,30.0,29.2,00.0,39.1,31.7,08.4,-000.4,0017.93,0010.86,0009.86
2022-01-14 00:51:00,,0825.2,5.01,0.00,30.0,29.2,00.0,39.1,31.8,08.4,-000.5,0017.41,0010.99,0009.99
2022-01-14 00:52:00,,0825.1,4.99,0.00,30.0,29.2,00.0,39.1,31.8,08.3,-000.4,0017.22,0011.07,0010.14
2022-01-14 00:53:00,,0825.1,5.01,0.00,30.0,29.2,00.0,39.1,31.8,08.3,-000.1,0016.90,0011.12,0010.24
2022-01-14 00:54:00,,0825.1,4.99,0.00,30.0,29.2,00.0,39.1,31.8,08.5,-000.0,0016.18,0011.18,0010.32
2022-01-14 00:55:00,,0825.1,5.00,0.00,30.0,29.2,00.0,39.1,31.8,08.6,0000.1,0016.81,0011.24,0010.36
2022-01-14 00:56:00,,0825.1,4.99,0.00,30.0,29.1,00.0,39.1,31.7,08.6,0000.7,0017.27,0011.19,0010.37
2022-01-14 00:57:00,,0825.2,5.00,0.00,30.0,29.2,00.0,39.0,31.7,08.5,0000.3,0018.48,0011.08,0010.33
2022-01-14 00:58:00,,0825.2,5.01,0.00,30.0,29.2,00.0,39.0,31.7,08.6,0000.0,0019.49,0010.99,0010.25
2022-01-14 00:59:00,,0825.2,4.99,0.00,30.0,29.1,00.0,39.0,31.7,08.6,0000.0,0019.79,0010.94,0010.19
